| time (UTC) | temp F | wind direction | speed MPH | gust MPH | rain 1hr in | rain 24hr in | rain mn in | humidity % | barometer mb |
| 20260906193306 | 76 | 103 | 5.0 | 9.0 | 0.00 | 0.00 | 0.00 | 70 | 1013.9 |
| 20260906192807 | 75 | 86 | 7.0 | 14.0 | 0.00 | 0.00 | 0.00 | 71 | 1013.8 |
| 20260906192307 | 75 | 99 | 6.0 | 12.0 | 0.00 | 0.00 | 0.00 | 71 | 1013.9 |
| 20260906191806 | 75 | 76 | 6.0 | 10.0 | 0.00 | 0.00 | 0.00 | 70 | 1013.9 |
| 20260906190807 | 76 | 100 | 7.0 | 12.0 | 0.00 | 0.00 | 0.00 | 70 | 1014.0 |
| 20260906190308 | 76 | 104 | 8.0 | 12.0 | 0.00 | 0.00 | 0.00 | 69 | 1013.9 |
| 20260906183806 | 75 | 88 | 5.0 | 12.0 | 0.00 | 0.00 | 0.00 | 71 | 1014.0 |
| 20260906183306 | 76 | 87 | 6.0 | 10.0 | 0.00 | 0.00 | 0.00 | 69 | 1014.0 |
| 20260906180306 | 76 | 88 | 5.0 | 10.0 | 0.00 | 0.00 | 0.00 | 68 | 1014.0 |
| 20260906175310 | 75 | 103 | 6.0 | 12.0 | 0.00 | 0.00 | 0.00 | 70 | 1014.1 |
| 20260906174807 | 76 | 84 | 6.0 | 12.0 | 0.00 | 0.00 | 0.00 | 71 | 1014.1 |
| 20260906172307 | 76 | 97 | 7.0 | 12.0 | 0.00 | 0.00 | 0.00 | 71 | 1014.1 |
| 20260906171806 | 76 | 94 | 6.0 | 12.0 | 0.00 | 0.00 | 0.00 | 71 | 1014.1 |
| 20260906171307 | 76 | 90 | 6.0 | 9.0 | 0.00 | 0.00 | 0.00 | 69 | 1014.1 |
| 20260906170806 | 76 | 75 | 6.0 | 12.0 | 0.00 | 0.00 | 0.00 | 69 | 1014.0 |
| 20260906165307 | 75 | 68 | 8.0 | 12.0 | 0.00 | 0.00 | 0.00 | 72 | 1014.1 |
| 20260906164306 | 75 | 83 | 7.0 | 14.0 | 0.00 | 0.00 | 0.00 | 72 | 1014.1 |
| 20260906163807 | 76 | 80 | 9.0 | 14.0 | 0.00 | 0.00 | 0.00 | 71 | 1014.1 |
| 20260906162806 | 76 | 70 | 9.0 | 13.0 | 0.00 | 0.00 | 0.00 | 71 | 1014.1 |
| 20260906161807 | 76 | 75 | 10.0 | 17.0 | 0.00 | 0.00 | 0.00 | 72 | 1014.0 |
| 20260906161306 | 76 | 50 | 10.0 | 16.0 | 0.00 | 0.00 | 0.00 | 72 | 1014.0 |
| 20260906160307 | 76 | 50 | 10.0 | 16.0 | 0.00 | 0.00 | 0.00 | 70 | 1014.0 |
| 20260906155807 | 76 | 69 | 9.0 | 20.0 | 0.00 | 0.00 | 0.00 | 70 | 1014.0 |
| 20260906155307 | 76 | 48 | 7.0 | 17.0 | 0.00 | 0.00 | 0.00 | 70 | 1014.0 |
| 20260906154307 | 77 | 52 | 10.0 | 16.0 | 0.00 | 0.00 | 0.00 | 68 | 1014.1 |
| 20260906153806 | 77 | 53 | 7.0 | 15.0 | 0.00 | 0.00 | 0.00 | 68 | 1014.0 |
| 20260906152806 | 76 | 79 | 9.0 | 15.0 | 0.00 | 0.00 | 0.00 | 69 | 1014.0 |
| 20260906152307 | 76 | 71 | 8.0 | 13.0 | 0.00 | 0.00 | 0.00 | 70 | 1014.0 |
| 20260906151806 | 76 | 81 | 7.0 | 13.0 | 0.00 | 0.00 | 0.00 | 70 | 1014.0 |
| 20260906150806 | 76 | 60 | 9.0 | 15.0 | 0.00 | 0.00 | 0.00 | 72 | 1013.9 |
| 20260906145806 | 76 | 78 | 7.0 | 13.0 | 0.00 | 0.00 | 0.00 | 72 | 1013.9 |
| 20260906144807 | 77 | 59 | 7.0 | 16.0 | 0.00 | 0.00 | 0.00 | 72 | 1013.8 |
| 20260906144306 | 77 | 72 | 8.0 | 16.0 | 0.00 | 0.00 | 0.00 | 72 | 1013.8 |
| 20260906143807 | 77 | 77 | 7.0 | 14.0 | 0.00 | 0.00 | 0.00 | 71 | 1013.8 |
| 20260906143306 | 77 | 64 | 8.0 | 12.0 | 0.00 | 0.00 | 0.00 | 72 | 1013.8 |
| 20260906142307 | 76 | 68 | 7.0 | 12.0 | 0.00 | 0.00 | 0.00 | 73 | 1013.7 |
| 20260906141807 | 76 | 75 | 6.0 | 12.0 | 0.00 | 0.00 | 0.00 | 72 | 1013.5 |
| 20260906141306 | 76 | 81 | 6.0 | 13.0 | 0.00 | 0.00 | 0.00 | 72 | 1013.4 |
| 20260906135807 | 76 | 56 | 6.0 | 13.0 | 0.00 | 0.00 | 0.00 | 73 | 1013.3 |
| 20260906134806 | 76 | 76 | 6.0 | 13.0 | 0.00 | 0.00 | 0.00 | 73 | 1013.3 |
| 20260906133807 | 76 | 73 | 7.0 | 12.0 | 0.00 | 0.00 | 0.00 | 73 | 1013.2 |
| 20260906130807 | 75 | 51 | 5.0 | 12.0 | 0.00 | 0.00 | 0.00 | 73 | 1013.0 |
| 20260906130306 | 75 | 54 | 5.0 | 9.0 | 0.00 | 0.00 | 0.00 | 73 | 1012.9 |
| 20260906125806 | 75 | 52 | 6.0 | 10.0 | 0.00 | 0.00 | 0.00 | 74 | 1013.0 |
| 20260906124308 | 74 | 50 | 7.0 | 12.0 | 0.00 | 0.00 | 0.00 | 75 | 1013.1 |
| 20260906123307 | 74 | 35 | 6.0 | 12.0 | 0.00 | 0.00 | 0.00 | 76 | 1013.0 |
| 20260906122807 | 74 | 55 | 6.0 | 10.0 | 0.00 | 0.00 | 0.00 | 76 | 1013.0 |
| 20260906121307 | 74 | 46 | 3.0 | 7.0 | 0.00 | 0.00 | 0.00 | 79 | 1012.9 |
| 20260906120806 | 74 | 51 | 5.0 | 10.0 | 0.00 | 0.00 | 0.00 | 79 | 1012.8 |
| 20260906113806 | 71 | 37 | 6.0 | 10.0 | 0.00 | 0.00 | 0.00 | 82 | 1012.3 |
| 20260906112807 | 71 | 48 | 6.0 | 12.0 | 0.00 | 0.00 | 0.00 | 82 | 1012.2 |
| 20260906110307 | 70 | 70 | 7.0 | 12.0 | 0.00 | 0.00 | 0.00 | 85 | 1011.9 |
| 20260906105806 | 70 | 77 | 7.0 | 14.0 | 0.00 | 0.00 | 0.00 | 86 | 1011.9 |
| 20260906105307 | 70 | 64 | 9.0 | 14.0 | 0.00 | 0.00 | 0.00 | 85 | 1011.8 |
| 20260906104306 | 70 | 68 | 10.0 | 14.0 | 0.00 | 0.00 | 0.00 | 85 | 1011.6 |
| 20260906103806 | 70 | 52 | 9.0 | 20.0 | 0.00 | 0.00 | 0.00 | 85 | 1011.6 |
| 20260906102807 | 70 | 58 | 10.0 | 16.0 | 0.00 | 0.00 | 0.00 | 86 | 1011.4 |
| 20260906100306 | 70 | 60 | 10.0 | 17.0 | 0.00 | 0.00 | 0.00 | 85 | 1011.2 |
| 20260906095807 | 70 | 54 | 11.0 | 17.0 | 0.00 | 0.00 | 0.00 | 85 | 1011.1 |
| 20260906094806 | 70 | 30 | 7.0 | 14.0 | 0.00 | 0.00 | 0.00 | 85 | 1010.9 |
| 20260906094306 | 70 | 39 | 10.0 | 15.0 | 0.00 | 0.00 | 0.00 | 87 | 1011.0 |
| 20260906091807 | 70 | 24 | 13.0 | 18.0 | 0.00 | 0.00 | 0.00 | 86 | 1010.5 |
| 20260906091306 | 70 | 15 | 11.0 | 15.0 | 0.00 | 0.00 | 0.00 | 86 | 1010.5 |
| 20260906090806 | 70 | 2 | 10.0 | 14.0 | 0.00 | 0.00 | 0.00 | 86 | 1010.5 |
| 20260906090306 | 70 | 15 | 10.0 | 14.0 | 0.00 | 0.00 | 0.00 | 86 | 1010.5 |
| 20260906084807 | 70 | 14 | 9.0 | 14.0 | 0.00 | 0.00 | 0.00 | 86 | 1010.3 |
| 20260906082807 | 71 | 351 | 10.0 | 13.0 | 0.00 | 0.00 | 0.00 | 85 | 1010.3 |
| 20260906082306 | 71 | 357 | 8.0 | 12.0 | 0.00 | 0.00 | 0.00 | 85 | 1010.3 |
| 20260906081307 | 71 | 31 | 7.0 | 12.0 | 0.00 | 0.00 | 0.00 | 84 | 1010.2 |
| 20260906080807 | 71 | 359 | 8.0 | 12.0 | 0.00 | 0.00 | 0.00 | 85 | 1010.1 |
| 20260906080307 | 71 | 0 | 7.0 | 10.0 | 0.00 | 0.00 | 0.00 | 85 | 1010.0 |
| 20260906075806 | 71 | 0 | 7.0 | 10.0 | 0.00 | 0.00 | 0.00 | 85 | 1010.0 |
| 20260906075306 | 71 | 7 | 7.0 | 12.0 | 0.00 | 0.00 | 0.00 | 84 | 1010.1 |
| 20260906074807 | 71 | 1 | 7.0 | 12.0 | 0.00 | 0.00 | 0.00 | 84 | 1010.1 |
| 20260906073807 | 71 | 349 | 6.0 | 12.0 | 0.00 | 0.00 | 0.00 | 84 | 1010.2 |
| 20260906073306 | 71 | 348 | 9.0 | 12.0 | 0.00 | 0.00 | 0.00 | 83 | 1010.2 |
| 20260906072306 | 71 | 7 | 8.0 | 12.0 | 0.00 | 0.00 | 0.00 | 83 | 1010.0 |
| 20260906071806 | 72 | 347 | 6.0 | 9.0 | 0.00 | 0.00 | 0.00 | 83 | 1010.0 |
| 20260906071307 | 72 | 6 | 5.0 | 9.0 | 0.00 | 0.00 | 0.00 | 83 | 1010.0 |
| 20260906070806 | 72 | 4 | 5.0 | 8.0 | 0.00 | 0.00 | 0.00 | 83 | 1010.0 |
| 20260906070306 | 72 | 358 | 6.0 | 9.0 | 0.00 | 0.00 | 0.00 | 83 | 1010.0 |
| 20260906065806 | 72 | 346 | 5.0 | 8.0 | 0.00 | 0.00 | 0.00 | 83 | 1010.0 |
| 20260906062806 | 72 | 352 | 6.0 | 10.0 | 0.00 | 0.00 | 0.00 | 82 | 1010.2 |
| 20260906062306 | 72 | 35 | 6.0 | 9.0 | 0.00 | 0.00 | 0.00 | 81 | 1010.2 |
| 20260906061806 | 72 | 22 | 5.0 | 10.0 | 0.00 | 0.00 | 0.00 | 82 | 1010.2 |
| 20260906061306 | 72 | 28 | 6.0 | 10.0 | 0.00 | 0.00 | 0.00 | 81 | 1010.2 |
| 20260906060306 | 72 | 3 | 8.0 | 12.0 | 0.00 | 0.02 | 0.00 | 80 | 1010.4 |
| 20260906055807 | 72 | 354 | 9.0 | 12.0 | 0.00 | 0.07 | 0.00 | 81 | 1010.4 |
| 20260906054807 | 72 | 320 | 5.0 | 9.0 | 0.00 | 0.08 | 0.00 | 82 | 1010.4 |
| 20260906052309 | 72 | 330 | 5.0 | 6.0 | 0.00 | 0.08 | 0.00 | 82 | 1010.7 |
| 20260906051806 | 72 | 313 | 3.0 | 5.0 | 0.00 | 0.08 | 0.00 | 82 | 1010.7 |
| 20260906051306 | 72 | 326 | 3.0 | 9.0 | 0.00 | 0.08 | 0.00 | 82 | 1010.7 |
| 20260906050806 | 72 | 314 | 2.0 | 7.0 | 0.00 | 0.08 | 0.00 | 82 | 1010.7 |
| 20260906045306 | 72 | 292 | 5.0 | 8.0 | 0.00 | 0.08 | 0.00 | 81 | 1010.7 |
| 20260906044806 | 72 | 300 | 3.0 | 6.0 | 0.00 | 0.08 | 0.00 | 81 | 1010.7 |
| 20260906044306 | 72 | 285 | 2.0 | 6.0 | 0.00 | 0.08 | 0.00 | 81 | 1010.8 |
| 20260906043806 | 72 | 280 | 2.0 | 6.0 | 0.00 | 0.08 | 0.00 | 81 | 1010.8 |
| 20260906043306 | 72 | 284 | 3.0 | 6.0 | 0.00 | 0.08 | 0.00 | 81 | 1010.8 |
| 20260906040832 | 73 | 281 | 3.0 | 6.0 | 0.00 | 0.08 | 0.00 | 80 | 1010.9 |
| 20260906035806 | 73 | 289 | 2.0 | 5.0 | 0.00 | 0.08 | 0.08 | 80 | 1010.9 |
| 20260906035306 | 73 | 269 | 2.0 | 5.0 | 0.00 | 0.08 | 0.08 | 80 | 1011.0 |
| 20260906034306 | 73 | 294 | 2.0 | 5.0 | 0.00 | 0.08 | 0.08 | 79 | 1010.9 |
| 20260906033806 | 73 | 280 | 3.0 | 6.0 | 0.00 | 0.08 | 0.08 | 78 | 1010.8 |
| 20260906032806 | 73 | 290 | 2.0 | 5.0 | 0.00 | 0.08 | 0.08 | 78 | 1010.8 |
| 20260906031806 | 73 | 280 | 2.0 | 5.0 | 0.00 | 0.08 | 0.08 | 79 | 1010.7 |
| 20260906030806 | 73 | 279 | 1.0 | 3.0 | 0.00 | 0.08 | 0.08 | 79 | 1010.8 |
| 20260906030306 | 73 | 284 | 1.0 | 3.0 | 0.00 | 0.08 | 0.08 | 79 | 1010.8 |
| 20260906025806 | 73 | 275 | 1.0 | 3.0 | 0.00 | 0.08 | 0.08 | 79 | 1010.8 |
| 20260906025306 | 73 | 274 | 1.0 | 2.0 | 0.00 | 0.08 | 0.08 | 79 | 1010.8 |
| 20260906024806 | 73 | 273 | 0.0 | 3.0 | 0.00 | 0.08 | 0.08 | 79 | 1010.7 |
| 20260906024306 | 73 | 268 | 1.0 | 3.0 | 0.00 | 0.08 | 0.08 | 78 | 1010.7 |
| 20260906023806 | 74 | 282 | 1.0 | 3.0 | 0.00 | 0.08 | 0.08 | 78 | 1010.6 |
| 20260906021806 | 74 | 282 | 1.0 | 3.0 | 0.00 | 0.08 | 0.08 | 76 | 1010.6 |
| 20260906021306 | 74 | 282 | 0.0 | 3.0 | 0.00 | 0.08 | 0.08 | 76 | 1010.6 |
| 20260906020807 | 75 | 282 | 1.0 | 3.0 | 0.00 | 0.08 | 0.08 | 77 | 1010.6 |
| 20260906015806 | 74 | 279 | 0.0 | 3.0 | 0.00 | 0.08 | 0.08 | 75 | 1010.5 |
| 20260906015306 | 75 | 295 | 0.0 | 3.0 | 0.00 | 0.08 | 0.08 | 75 | 1010.4 |
| 20260906014806 | 75 | 297 | 0.0 | 2.0 | 0.00 | 0.08 | 0.08 | 74 | 1010.4 |
| 20260906014306 | 75 | 297 | 0.0 | 0.0 | 0.00 | 0.08 | 0.08 | 74 | 1010.3 |
| 20260906013806 | 75 | 297 | 0.0 | 3.0 | 0.00 | 0.08 | 0.08 | 74 | 1010.3 |
| 20260906012808 | 74 | 127 | 0.0 | 0.0 | 0.00 | 0.08 | 0.08 | 71 | 1010.2 |
| 20260906011306 | 74 | 127 | 0.0 | 0.0 | 0.00 | 0.08 | 0.08 | 71 | 1010.2 |
| 20260906005306 | 74 | 127 | 0.0 | 1.0 | 0.00 | 0.08 | 0.08 | 71 | 1010.0 |
| 20260906004806 | 74 | 127 | 0.0 | 0.0 | 0.00 | 0.08 | 0.08 | 70 | 1010.1 |
| 20260906004306 | 74 | 127 | 0.0 | 0.0 | 0.00 | 0.08 | 0.08 | 70 | 1010.0 |
| 20260906000306 | 75 | 127 | 0.0 | 0.0 | 0.00 | 0.08 | 0.08 | 70 | 1009.5 |
| 20260905235307 | 75 | 127 | 0.0 | 0.0 | 0.00 | 0.08 | 0.08 | 70 | 1009.4 |
| 20260905234805 | 75 | 127 | 0.0 | 1.0 | 0.00 | 0.08 | 0.08 | 69 | 1009.4 |
| 20260905234305 | 75 | 127 | 1.0 | 1.0 | 0.00 | 0.08 | 0.08 | 70 | 1009.3 |
| 20260905233306 | 75 | 127 | 0.0 | 0.0 | 0.00 | 0.08 | 0.08 | 70 | 1009.3 |
| 20260905232806 | 76 | 127 | 0.0 | 0.0 | 0.00 | 0.08 | 0.08 | 69 | 1009.3 |
| 20260905232306 | 76 | 127 | 0.0 | 0.0 | 0.00 | 0.08 | 0.08 | 69 | 1009.3 |
| 20260905231306 | 76 | 127 | 0.0 | 1.0 | 0.00 | 0.08 | 0.08 | 69 | 1009.3 |
| 20260905225807 | 77 | 127 | 2.0 | 3.0 | 0.00 | 0.08 | 0.08 | 67 | 1009.5 |
| 20260905224805 | 77 | 128 | 1.0 | 3.0 | 0.00 | 0.08 | 0.08 | 67 | 1009.3 |
| 20260905223806 | 78 | 169 | 1.0 | 3.0 | 0.00 | 0.08 | 0.08 | 65 | 1009.3 |
| 20260905223306 | 78 | 169 | 2.0 | 3.0 | 0.00 | 0.08 | 0.08 | 64 | 1009.3 |
| 20260905222806 | 78 | 169 | 2.0 | 3.0 | 0.00 | 0.08 | 0.08 | 64 | 1009.3 |
| 20260905214806 | 78 | 150 | 2.0 | 5.0 | 0.00 | 0.08 | 0.08 | 65 | 1009.2 |
| 20260905214306 | 78 | 128 | 2.0 | 5.0 | 0.00 | 0.08 | 0.08 | 64 | 1009.2 |
| 20260905211806 | 79 | 93 | 4.0 | 7.0 | 0.00 | 0.08 | 0.08 | 62 | 1009.0 |
| 20260905210806 | 79 | 109 | 3.0 | 6.0 | 0.00 | 0.08 | 0.08 | 63 | 1009.0 |
| 20260905210306 | 78 | 99 | 3.0 | 7.0 | 0.00 | 0.08 | 0.08 | 63 | 1009.0 |
| 20260905203306 | 78 | 77 | 5.0 | 7.0 | 0.00 | 0.08 | 0.08 | 63 | 1008.9 |
| 20260905202306 | 78 | 76 | 5.0 | 7.0 | 0.00 | 0.08 | 0.08 | 64 | 1009.1 |
| 20260905200805 | 79 | 93 | 5.0 | 10.0 | 0.00 | 0.08 | 0.08 | 64 | 1009.1 |
| 20260905200306 | 79 | 100 | 6.0 | 8.0 | 0.00 | 0.08 | 0.08 | 64 | 1009.1 |
| 20260905195307 | 80 | 110 | 3.0 | 6.0 | 0.00 | 0.08 | 0.08 | 65 | 1009.1 |
| 20260905194806 | 80 | 130 | 3.0 | 7.0 | 0.00 | 0.08 | 0.08 | 64 | 1009.0 |